Regional Weather Roundup
Issued by NWS Charleston, SC

Current Version | Previous Version | Graphics & Text | Print | Product List | Glossary Off
Versions: 1 2 3 4 5 6 7 8 9 10 11 12 13 14 15 16 17 18 19 20 21 22 23 24 25 26 27 28 29 30 31 32 33 34 35 36 37 38 39 40 41 42 43 44 45 46 47 48 49 50
000 ASUS42 KCHS 241527 RWRCHS REGIONAL WEATHER ROUNDUP NATIONAL WEATHER SERVICE CHARLESTON SC 1100 AM EDT SUN MAY 24 2015 NOTE: "FAIR" INDICATES FEW OR NO CLOUDS BELOW 12,000 FEET WITH NO SIGNIFICANT WEATHER AND/OR OBSTRUCTIONS TO VISIBILITY. NOT ALL STATIONS ARE QUALITY CONTROLLED BY THE NATIONAL WEATHER SERVICE. USE DATA WITH CAUTION...ESPECIALLY DEWPOINT OBSERVATIONS. SCZ027-030-031-034>040-042>050-241600- ...SOUTHEAST SOUTH CAROLINA... CITY SKY/WX TMP DP RH WIND PRES REMARKS N CHARLESTON PTSUNNY 78 57 48 E14G20 30.37S WATERFRONT PAR N/A 76 62 61 E14 30.34S MOUNT PLEASANT LGT RAIN 79 59 50 E10G20 30.38R JOHNS ISLAND MOSUNNY 79 61 53 E16 30.38R PINOPOLIS N/A 79 59 50 SE5 30.31R MONCKS CORNER FAIR 81 55 41 E7 30.38S SUMMERVILLE FAIR 79 59 50 SE6 30.38S BEAUFORT MCAS MOSUNNY 79 61 53 E13 30.36R BEAUFORT ARPT PTSUNNY 79 63 57 E15 30.35S HILTON HEAD IS MOSUNNY 79 63 57 NE12G17 30.36S WALTERBORO MOSUNNY 77 59 53 E7 30.38S ALLENDALE PTSUNNY 79 59 50 VRB7 30.36S ...SOUTHERN MIDLANDS AND PEE DEE... CITY SKY/WX TMP DP RH WIND PRES REMARKS GEORGETOWN NOT AVBL KINGSTREE NOT AVBL ORANGEBURG MOSUNNY 77 57 50 SE8 30.38S BARNWELL FAIR 79 57 47 E8 30.38R AIKEN FAIR 77 52 41 E8 30.41S MANNING FAIR 77 48 36 SE8 30.39S COLUMBIA PTSUNNY 77 55 46 E16 30.38S SUMTER MOSUNNY 78 56 47 SE9 30.38S FLORENCE PTSUNNY 78 56 46 SE12 30.40R MYRTLE BEACH PTSUNNY 79 57 47 E13G20 30.42S N MYRTLE BEACH SUNNY 78 57 48 E12 30.40S $$ GAZ063-065-086>088-099>101-113>116-118-119-134>141-150-241600- ...SOUTHEAST GEORGIA... CITY SKY/WX TMP DP RH WIND PRES REMARKS SAVANNAH ARPT PTSUNNY 80 60 50 SE15 30.34S HUNTER AAF MOSUNNY 79 63 56 E16G22 30.32R FORT STEWART MOSUNNY 80 61 51 NE10 30.31S STATESBORO MOSUNNY 80 64 59 NE5 30.35S SYLVANIA SUNNY 80 63 54 SE7 30.36S CLAXTON FAIR 79 63 57 E8 30.34S ...CSRA...CENTRAL AND FAR SOUTHEAST GEORGIA... CITY SKY/WX TMP DP RH WIND PRES REMARKS THOMSON CLOUDY 79 63 58 CALM 30.41S AUGUSTA-BUSH MOSUNNY 77 59 53 E8 30.36S AUGUSTA-DANIEL MOSUNNY 77 58 51 E9 30.38R SWAINSBORO FAIR 81 63 54 E7 30.34F VIDALIA MOSUNNY 81 61 50 E10 30.33F EASTMAN PTSUNNY 81 65 58 SE6 30.35S HAZLEHURST PTSUNNY 82 63 53 SE8 30.31F ALMA SUNNY 80 62 54 E10 30.31F WAYCROSS SUNNY 82 65 55 E10G16 30.30F JESUP FAIR 84 64 51 E12G18 30.32S BAXLEY FAIR 82 63 51 E8 30.31F BRUNSWICK MOSUNNY 81 59 47 E9G17 30.32S SAINT SIMONS NOT AVBL $$ SCZ027-028-034-036>038-045-046-048>050-GAZ119-141-241600- ...LAKE AND SUPPLEMENTAL COASTAL OBSERVATIONS... STATION/POSITION TIME TEMP WIND PRES WAVE SWELL AIR SEA DIR/SP/G HT/PER HT/PER/DIR (UTC) (F) (DEG/KT/KT) (MB) (FT/S) (FT/S/D) UPR LAKE MARION NOT AVBL WINYAH BAY 1445 75 100/ 12 1028.0S LAKE MURRAY 1400 72 130/ 6/ 8 1028.4S ACE BASIN NERRS NOT AVBL FORT PULASKI 1500 75 78 70/ 15/ 17 1028.0R SAPELO ISLAND 1500 81 70/ 9 1027.0S $$ ANZ835-935-AMZ111-154-330-350-352-354-370-450-454-472-241600- ...C-MAN AND BUOY OBSERVATIONS... STATION/POSITION TIME TEMP WIND PRES WAVE SWELL AIR SEA DIR/SP/G HT/PER HT/PER/DIR (UTC) (F) (DEG/KT/KT) (MB) (FT/S) (FT/S/D) BUOY 41004 1450 75 75 80/ 16/ 19 1027.5R 5/ 7 2/10 BUOY 41008 1450 75 75 80/ 10/ 10 1026.9S 4/ 7 3/110/ 7 FOLLY BEACH CMAN 1500 76 80/ 14/ 15 1028.6R CAPERS NEARSHORE 1408 75 90/ 14/ 19 1028.4F FRIPP NEARSHORE 1400 76 90/ 14/ 16 1026.8R STATION/POSITION TIME TEMP WIND PRES WAVE SWELL AIR SEA DIR/SP/G HT/PER HT/PER/DIR (UTC) (F) (DEG/KT/KT) (MB) (FT/S) (FT/S/D) 5E ST. MARYS GA 1421 77 N/A 5/ 6 FRYING PAN BUOY 1450 75 73 100/ 14/ 16 1029.7S 4/ 6 2/ 80/10 BUOY 41025 1450 73 77 30/ 4/ 8 1030.4R 2/ 6 2/ 30/ 6 CAPE LOOKOUT NC 1500 74 50/ 6/ 7 1029.7S BUOY 41002 1450 72 74 70/ 17/ 21 1028.2S 6/ 6 BUOY 41010 1420 79 80 80/ 14/ 16 1024.4R ST AUGUSTINE FL 1500 76 76 60/ 10/ 11 1026.2R $$

USA.gov is the U.S. government's official web portal to all federal, state and local government web resources and services.